Weather in Kulsary

Kazakhstan     46°57′39″N   54°00′21″E
temp.,
°C
wind,
m/s
gust,
m/s
humid.,
%
clouds,
%
prec.,
mm/h
press.,
hPa
HPBL,
m
5 december, sun
sun523:00+1sse510606 0.0 1024180
02:000sse5107444 0.0 1023182
05:000sse47795 0.0 1022135
08:00−1se510795 0.0 1021174
11:00+1se696320 0.0 1021265
14:00+4sse6746100 0.0 1020428
17:00+3se4652100 0.0 1019111
20:00+1sse476172 0.0 1020101
6 december, mon
mon623:00+1sse5960100 0.0 1019166
02:00+2sse4766100 0.0 1019133
05:00+2sse4669100 0.0 1019123
08:00+2s3470100 0.0 102068
11:00+3sse3466100 0.0 1021134
14:00+6s335398 0.0 1021326
17:00+5s11587 0.0 102211
20:00+5sse226099 0.0 102318
7 december, tue
tue723:00+5sse3360100 0.0 102437
02:00+6s3360100 0.0 102438
05:00+6sse3361100 0.0 102549
08:00+6sse3361100 0.0 102662
11:00+6sse3461100 0.0 1027173
14:00+8s2366100 0.0 1027420
17:00+7se34705 0.0 102764
20:00+5se44735 0.0 102862
8 december, wed
wed823:00+4se46715 0.0 1029103
02:00+3ese5874100 0.0 1028130
05:00+2ese511765 0.0 1029198
08:00+2ese7137981 0.0 1028267
11:00+4se9156976 0.0 1029447
14:00+7se10144776 0.0 1027653
17:00+7ese101546100 0.0 1026614
20:00+5ese10185287 0.0 1025523
9 december, thu
thu923:00+4ese11196456 0.0 1024520
02:00+3ese111965100 0.0 1023513
05:00+3ese11206999 0.0 1021492
08:00+4ese112071100 0.0 1020496
11:00+5ese112067100 0.0 1019581
14:00+8ese121957100 0.0 1016661
17:00+9ese111854100 0.0 1015638
20:00+9ese101857100 0.0 1015566